STARLINK-3913 (52485 NORAD) Tracking and Keplerian Element Data
This shows tracking and keplerian element data for the satellite.
Feedback or suggestion? Click here.
Element | Value |
Catalog | 52485 |
Name | STARLINK-3913 |
Epoch Orbit | 130 |
Epoch Day | 167.08334491 |
Epoch Year | 2022 |
RAAN | 64.9806 |
Inclination | 53.2168 |
Eccentricity | 0.0001815 |
Argument of Perigee | 32.2677 |
Mean Anonmoly | 116.0332 |
Mean Motion | 15.73241259 |
Decay Rate | 0.0001825 |
L1 | 1 52485U 22049AL 22167.08334491 .00018250 00000+0 13393-3 0 9998 |
L2 | 2 52485 53.2168 64.9806 0001815 32.2677 116.0332 15.73241259 1305 |
Live tracking and technical data element details for STARLINK-3913 (NORAD 52485). STARLINK-3913 can be tracked NOW for your location showing map with azimuth and elevation plus other details from your city location.
Track the satellite on the map from your city or location and see movement details for azimuth, elevation, latitude, longitude, range, height, and movement on the map or in text.
IsCatalogInMostPopularTable: catalog: 52485, numindb: 1
Update: records affected: 1
GetName: 52485 STARLINK-3913
Hit Count: updated at: Mon, 27 Jun 2022 05:25:16 GMT